TimeMDT,TemperatureF,Dew PointF,Humidity,Sea Level PressureIn,VisibilityMPH,Wind Direction,Wind SpeedMPH,Gust SpeedMPH,PrecipitationIn,Events,Conditions,WindDirDegrees,DateUTC
12:53 AM,23.0,18.0,81,29.99,9.0,NW,6.9,-,N/A,,Overcast,310,2013-04-11 06:53:00
1:53 AM,21.9,18.0,85,29.95,8.0,SE,6.9,-,N/A,,Overcast,130,2013-04-11 07:53:00
2:53 AM,23.0,18.0,81,29.90,10.0,West,3.5,-,N/A,,Partly Cloudy,280,2013-04-11 08:53:00
3:53 AM,21.0,16.0,81,29.88,10.0,NNE,8.1,-,N/A,,Partly Cloudy,20,2013-04-11 09:53:00
4:53 AM,19.9,16.0,85,29.89,8.0,NNW,9.2,-,N/A,,Mostly Cloudy,340,2013-04-11 10:53:00
5:53 AM,19.9,16.0,85,29.94,10.0,WSW,9.2,-,N/A,,Clear,240,2013-04-11 11:53:00
6:53 AM,26.1,18.0,71,29.93,10.0,SW,10.4,-,N/A,,Mostly Cloudy,220,2013-04-11 12:53:00
7:53 AM,25.0,19.0,78,29.94,10.0,Calm,Calm,-,N/A,,Overcast,0,2013-04-11 13:53:00
8:53 AM,26.1,21.0,81,29.94,9.0,East,8.1,-,0.00,,Overcast,100,2013-04-11 14:53:00
9:53 AM,32.0,25.0,75,29.98,10.0,WNW,6.9,-,N/A,,Overcast,300,2013-04-11 15:53:00
9:56 AM,30.2,24.8,80,29.88,10.0,WNW,10.4,-,N/A,,Overcast,300,2013-04-11 15:56:00
10:34 AM,33.8,28.4,81,29.89,10.0,SW,9.2,-,N/A,,Overcast,230,2013-04-11 16:34:00
10:53 AM,34.0,28.0,79,29.97,10.0,SW,12.7,-,N/A,,Overcast,230,2013-04-11 16:53:00
11:53 AM,35.1,30.0,82,29.94,10.0,Calm,Calm,-,N/A,,Scattered Clouds,0,2013-04-11 17:53:00
12:53 PM,39.0,28.0,65,29.92,10.0,SSE,10.4,-,N/A,,Clear,150,2013-04-11 18:53:00
1:53 PM,39.0,28.9,67,29.90,10.0,SE,11.5,-,N/A,,Clear,130,2013-04-11 19:53:00
2:53 PM,39.9,28.0,63,29.90,10.0,SE,11.5,-,N/A,,Clear,140,2013-04-11 20:53:00
3:53 PM,39.9,28.0,63,29.89,10.0,SE,13.8,-,N/A,,Clear,130,2013-04-11 21:53:00
4:53 PM,41.0,27.0,57,29.88,10.0,SE,10.4,-,N/A,,Clear,140,2013-04-11 22:53:00
5:53 PM,42.1,27.0,55,29.88,10.0,ESE,4.6,-,N/A,,Clear,120,2013-04-11 23:53:00
6:53 PM,39.0,28.0,65,29.86,10.0,SW,3.5,-,N/A,,Clear,230,2013-04-12 00:53:00
7:53 PM,37.9,28.0,68,29.87,10.0,WSW,8.1,-,N/A,,Mostly Cloudy,240,2013-04-12 01:53:00
8:53 PM,37.9,27.0,65,29.88,10.0,WSW,8.1,-,N/A,,Clear,240,2013-04-12 02:53:00
9:53 PM,35.1,27.0,72,29.88,10.0,Variable,3.5,-,N/A,,Clear,0,2013-04-12 03:53:00
10:53 PM,35.1,28.0,76,29.88,10.0,Calm,Calm,-,N/A,,Clear,0,2013-04-12 04:53:00
11:53 PM,32.0,27.0,82,29.91,10.0,SW,5.8,-,N/A,,Clear,230,2013-04-12 05:53:00